Regional Weather Roundup
Issued by NWS Boston, MA

Current Version | Previous Version | Text Only | Print | Product List | Glossary Off
Versions: 1 2 3 4 5 6 7 8 9 10 11 12 13 14 15 16 17 18 19 20 21 22 23 24 25 26 27 28 29 30 31 32 33 34 35 36 37 38 39 40 41 42 43 44 45 46 47 48 49 50
000 ASUS41 KBOX 232310 RWRBOX REGIONAL WEATHER ROUNDUP NATIONAL WEATHER SERVICE BOSTON/NORTON MA 600 PM EST WED JAN 23 2019 NOTE: "FAIR" INDICATES FEW OR NO CLOUDS BELOW 12,000 FEET WITH NO SIGNIFICANT WEATHER AND/OR OBSTRUCTIONS TO VISIBILITY. MAZALL-240000- EASTERN MASSACHUSETTS CITY SKY/WX TMP DP RH WIND PRES REMARKS BOSTON CLOUDY 42 30 62 SW15 30.07F BEVERLY CLOUDY 41 28 60 SW10 30.06F LAWRENCE CLOUDY 39 27 62 SW12G20 30.06F WCI 32 BEDFORD CLOUDY 40 27 59 SW13 30.06S BLUE HILL N/A 38 31 76 S22G35 30.05F WCI 27 NORWOOD CLOUDY 43 32 65 S10 30.08F MARSHFIELD N/A 45 36 70 SW12G20 30.08F PLYMOUTH CLOUDY 43 37 79 S12 30.10F TAUNTON CLOUDY 44 35 70 S12G17 30.10F NEW BEDFORD CLOUDY 44 40 85 S10 30.11F $$ MAZALL-240000- CAPE COD AND THE ISLANDS CITY SKY/WX TMP DP RH WIND PRES REMARKS FALMOUTH CLOUDY 45 39 81 S15 30.13F HYANNIS CLOUDY 41 37 86 S12G21 30.13F CHATHAM CLOUDY 41 37 86 SW14G23 30.16F PROVINCETOWN CLOUDY 42 39 89 S20G25 30.11F NANTUCKET CLOUDY 41 39 93 S14 30.17F MARTHAS VNYRD CLOUDY 44 43 96 S10 30.15F $$ MAZALL-240000- CENTRAL AND WESTERN MASSACHUSETTS CITY SKY/WX TMP DP RH WIND PRES REMARKS WORCESTER CLOUDY 35 26 69 SW14 30.03F WCI 26 FITCHBURG CLOUDY 39 27 62 SW13 30.04F WCI 31 ORANGE CLOUDY 37 25 61 S9 30.04F WCI 30 SPRINGFIELD CLOUDY 36 25 62 S12 30.05F WCI 28 WESTFIELD CLOUDY 36 25 64 S10 30.04F WCI 28 NORTH ADAMS MIX PCPN 37 33 85 E12 29.97F WCI 29 PITTSFIELD CLOUDY 38 30 73 SW18G26 29.95F WCI 28 $$ RIZALL-240000- RHODE ISLAND CITY SKY/WX TMP DP RH WIND PRES REMARKS PROVIDENCE CLOUDY 41 34 76 S9 30.11F NEWPORT CLOUDY 43 39 86 S10 30.11F BLOCK ISLAND CLOUDY 45 42 89 S15G22 30.11F SMITHFIELD CLOUDY 39 32 76 SW6 30.08F WESTERLY CLOUDY 43 39 86 SW8 30.12F $$ CTZALL-240000- CONNECTICUT CITY SKY/WX TMP DP RH WIND PRES REMARKS BRADLEY INTL CLOUDY 36 26 67 S9 30.07F WCI 29 HARTFORD CLOUDY 37 28 70 S3 30.09F BRIDGEPORT CLOUDY 40 33 76 S5 30.08F DANBURY CLOUDY 33 30 88 CALM 30.07F GROTON CLOUDY 41 36 82 CALM 30.11F NEW HAVEN CLOUDY 40 32 73 S6 30.08F CHESTER CLOUDY 41 34 75 S7 30.09S MERIDEN CLOUDY 34 31 88 CALM 30.08F WILLIMANTIC CLOUDY 39 30 70 S7 30.09F OXFORD CLOUDY 33 28 81 S5 30.06F WCI 29 $$ MEZ002-015-021-024-NHZ003-005-008-011-012-014-VTZ005-008-240000- NORTHERN NEW ENGLAND CITY SKY/WX TMP DP RH WIND PRES REMARKS PORTLAND ME CLOUDY 34 26 72 S5 30.02F WCI 30 BANGOR ME FRZ RAIN 22 18 85 NE5 30.03F WCI 16 CONCORD NH CLOUDY 38 30 73 S9 30.00S WCI 31 MANCHESTER NH CLOUDY 40 30 67 SW13G24 30.00F NASHUA NH CLOUDY 40 30 67 VRB6 30.03F PORTSMOUTH NH CLOUDY 40 27 61 SW13G18 30.01 JAFFREY NH CLOUDY 35 28 75 S15G23 29.97F WCI 25 KEENE NH LGT RAIN 36 29 75 S10G18 29.99F WCI 28 BURLINGTON VT FLURRIES 33 25 72 S21G31 29.87S WCI 21 MT. WASHINGTON BLWGSNOW 27 27 100 W60 N/A VSB 0 WCI 5 $$ NYZ052-076-240000- EASTERN NEW YORK CITY SKY/WX TMP DP RH WIND PRES REMARKS ALBANY LGT RAIN 37 28 70 S17G26 29.95F WCI 27 NEW YORK CITY CLOUDY 44 35 70 S7 30.06F $$ ANZALL-240000- MARINE OBSERVATIONS STATION/POSITION TIME TEMP WIND PRES VSBY WAVE AIR SEA DIR/SP/G HT/PER (UTC) (F) (DEG/KT/KT) (MB) (MI) (FT/S) BOSTON BUOY 2250 43 41 190/ 14/ 16 1018.6F 3/ 4 BUZZARDS BAY 2200 44 190/ 14/ 14 1021.8F NANTUCKET SOUND 2250 38 35 170/ 14/ 16 1021.3F 1/ 3 MASS BAY-STELLWA 2204 41 40 210/ 17/ 21 1017.4F 1 7/8 5/ 5 ISLE OF SHOALS 2300 40 210/ 24/ 27 1016.7F S OF BLOCK IS 2230 44 N/A 6/ 7 $$ ......................KEY......................... SKY/WX - SKY CONDITION/PRESENT WEATHER TMP - TEMPERATURE IN FAHRENHEIT DWPT - DEWPOINT IN FAHRENHEIT RH - RELATIVE HUMIDITY IN PERCENT WIND - DIRECTION AND SPEED IN MPH PRES - MEAN SEA LEVEL PRESSURE IN INCHES OF HG WCI - WIND CHILL INDEX VSB - VISIBILITY IN MILES HX - HEAT INDEX TC - TEMPERATURE IN CELSIUS VRB - VARIABLE WIND DIRECTION N/A - NOT AVAILABLE

USA.gov is the U.S. government's official web portal to all federal, state and local government web resources and services.